Powrót do katalogu

SL-8 R/B

AktywnyLEO
NORAD 4784·ROCKET BODY·🇷🇺 Russia

Wystrzelony Dec 2, 1970 z Plesetsk Cosmodrome

Loading…

Następne Przeloty (najbliższe 24 godziny)

TLE

ŚwieżeSource: Space-Track

Epoka: Sep 14, 2026, 15:37 UTC

1 04784U 70102B   26257.65108119  .00000066  00000-0  89610-4 0  9996
2 04784  74.0283 124.5463 0025493 119.6815 252.4809 13.77013160801488

Śledź SL-8 R/B w czasie rzeczywistym z AllMySat

Download on the App Store